Weather in Capo Vaticano

Italy     38°37′20″N   15°50′04″E
temp.,
°C
wind,
m/s
gust,
m/s
humid.,
%
clouds,
%
prec.,
mm/h
press.,
hPa
HPBL,
m
8 march, mon
mon801:00+12se337352 0.0 1019196
04:00+12ese557451 0.0 1017186
07:00+12ese446975 0.0 1016209
10:00+14s236582 0.0 1016330
13:00+15ssw346891 0.0 1014167
16:00+14ssw6770100 0.0 1014203
19:00+14s347483 0.0 101497
22:00+13se33710 0.0 1015184
9 march, tue
tue901:00+13ese33710 0.0 1015137
04:00+13ese22700 0.0 1014135
07:00+13sse12690 0.0 1014175
10:00+13sw12700 0.0 1015180
13:00+15ssw126733 0.0 1014111
16:00+15w3469100 0.0 101399
19:00+14sw4678100 0.0 1013241
22:00+14s3479100 0.0 1014175
10 march, wed
wed1001:00+13se127864 0.0 1013119
04:00+13se127591 0.0 1012170
07:00+13ssw227788 0.0 1012266
10:00+14w798388 0.6 1013717
13:00+14w787775 1.3 1014964
16:00+13wnw787445 0.4 10131037
19:00+13nw787126 0.9 10161132
22:00+13wnw677052 1.3 1018940
11 march, thu
thu1101:00+13wnw787057 2.3 10181237
04:00+13wnw89712 1.4 10181111
07:00+12nnw1010620 1.8 10201109
10:00+11nnw88613 0.0 10221153
13:00+12nw67592 0.0 10231175
16:00+12nw56540 0.0 10231152
19:00+12nnw34500 0.0 10251221
22:00+12ne02540 0.0 1027643
12 march, fri
fri1201:00+12se23600 0.0 1026398
04:00+12ssw23610 0.0 1025502
07:00+11e12650 0.0 1025306
10:00+12sw22670 0.0 1025275
13:00+12nw22640 0.0 1024305
16:00+13n23630 0.0 1022353
19:00+13n12620 0.0 1022316
22:00+12e22650 0.0 1022196